TimeEST,TemperatureF,Dew PointF,Humidity,Sea Level PressureIn,VisibilityMPH,Wind Direction,Wind SpeedMPH,Gust SpeedMPH,PrecipitationIn,Events,Conditions,WindDirDegrees,DateUTC
12:02 AM,37.4,30.2,75,29.96,10.0,Variable,3.5,-,0.00,Rain,Light Rain,0,2013-11-10 05:02:00
12:53 AM,36.0,32.0,86,29.95,9.0,SSE,3.5,-,0.01,,Overcast,150,2013-11-10 05:53:00
1:23 AM,35.6,32.0,87,29.92,10.0,Calm,Calm,-,0.00,,Overcast,0,2013-11-10 06:23:00
1:53 AM,36.0,33.1,89,29.92,10.0,Calm,Calm,-,0.00,,Overcast,0,2013-11-10 06:53:00
2:53 AM,36.0,33.1,89,29.88,8.0,Calm,Calm,-,0.01,Rain,Light Rain,0,2013-11-10 07:53:00
3:33 AM,35.6,33.8,93,29.87,7.0,Calm,Calm,-,0.01,Rain,Light Rain,0,2013-11-10 08:33:00
3:53 AM,35.1,33.1,92,29.88,4.0,Calm,Calm,-,0.02,Snow,Light Snow,0,2013-11-10 08:53:00
4:02 AM,35.6,32.0,87,29.85,2.5,Calm,Calm,-,0.01,Snow,Light Snow,0,2013-11-10 09:02:00
4:18 AM,33.8,32.0,93,29.85,4.0,Calm,Calm,-,0.02,Snow,Light Snow,0,2013-11-10 09:18:00
4:43 AM,33.8,32.0,93,29.84,6.0,Calm,Calm,-,0.02,,Overcast,0,2013-11-10 09:43:00
4:53 AM,34.0,30.9,89,29.85,5.0,Calm,Calm,-,0.02,,Overcast,0,2013-11-10 09:53:00
5:53 AM,33.1,30.0,89,29.83,4.0,Calm,Calm,-,N/A,,Partly Cloudy,0,2013-11-10 10:53:00
6:22 AM,33.8,30.2,87,29.82,1.8,Calm,Calm,-,N/A,,Scattered Clouds,0,2013-11-10 11:22:00
6:28 AM,33.8,32.0,93,29.82,0.5,Calm,Calm,-,N/A,Fog,Fog,0,2013-11-10 11:28:00
6:53 AM,33.1,30.0,89,29.83,0.5,Calm,Calm,-,N/A,Fog,Fog,0,2013-11-10 11:53:00
7:16 AM,33.8,32.0,93,29.82,1.0,Calm,Calm,-,N/A,,Overcast,0,2013-11-10 12:16:00
7:39 AM,33.8,32.0,93,29.81,1.0,Calm,Calm,-,N/A,,Overcast,0,2013-11-10 12:39:00
7:53 AM,34.0,32.0,92,29.83,1.0,Calm,Calm,-,N/A,,Overcast,0,2013-11-10 12:53:00
8:00 AM,33.8,32.0,93,29.81,5.0,Calm,Calm,-,N/A,,Overcast,0,2013-11-10 13:00:00
8:53 AM,36.0,33.1,89,29.83,3.0,Calm,Calm,-,N/A,,Overcast,0,2013-11-10 13:53:00
9:53 AM,37.9,35.1,89,29.80,5.0,Calm,Calm,-,0.00,,Overcast,0,2013-11-10 14:53:00
10:53 AM,39.9,36.0,86,29.78,8.0,West,3.5,-,N/A,,Partly Cloudy,280,2013-11-10 15:53:00
11:53 AM,43.0,37.9,82,29.75,10.0,South,6.9,-,N/A,,Mostly Cloudy,190,2013-11-10 16:53:00
12:53 PM,43.0,37.9,82,29.73,10.0,SSW,6.9,-,0.00,Rain,Light Rain,200,2013-11-10 17:53:00
1:53 PM,46.9,37.9,71,29.71,10.0,South,10.4,-,0.00,,Scattered Clouds,180,2013-11-10 18:53:00
2:19 PM,44.6,37.4,76,29.72,2.5,West,12.7,20.7,0.03,Rain,Rain,280,2013-11-10 19:19:00
2:27 PM,42.8,37.4,81,29.72,3.0,West,6.9,20.7,0.03,Rain,Light Rain,260,2013-11-10 19:27:00
2:53 PM,43.0,37.0,80,29.73,10.0,WSW,4.6,-,0.03,,Scattered Clouds,240,2013-11-10 19:53:00
3:53 PM,43.0,37.9,82,29.75,10.0,South,5.8,-,0.00,Rain,Light Rain,190,2013-11-10 20:53:00
4:53 PM,42.1,36.0,79,29.76,10.0,SSW,6.9,-,0.01,Rain,Light Rain,200,2013-11-10 21:53:00
5:53 PM,39.0,35.1,86,29.77,10.0,South,8.1,-,0.00,,Scattered Clouds,190,2013-11-10 22:53:00
6:53 PM,37.9,35.1,89,29.77,10.0,South,8.1,-,0.00,Rain,Light Rain,170,2013-11-10 23:53:00
7:53 PM,39.9,36.0,86,29.78,10.0,South,6.9,-,0.01,,Overcast,170,2013-11-11 00:53:00
8:53 PM,42.1,35.1,76,29.80,10.0,West,3.5,-,0.00,Rain,Light Rain,260,2013-11-11 01:53:00
9:53 PM,41.0,33.1,73,29.81,10.0,West,8.1,16.1,0.00,,Overcast,270,2013-11-11 02:53:00
10:53 PM,39.9,30.9,70,29.83,10.0,West,10.4,-,N/A,,Overcast,280,2013-11-11 03:53:00
11:53 PM,37.9,30.9,76,29.86,10.0,West,6.9,-,N/A,,Overcast,280,2013-11-11 04:53:00